Location: Düngen
(52.0952°N, 10.0219°E)
Time: 10:22:43
(UTC+00:00)

Daily predictions for brighter satellites

Satellite Brightness Start Highest point End
(mag) Time Altitude Azimuth Time Altitude Azimuth Time Altitude Azimuth
Meteor 1-20 Rocket 4.4 17:45:12 10° S 17:50:52 55° E 17:56:34 10° NNE
NOSS 3-2 (A) 3.6 17:48:20 10° S 17:53:00 40° ESE 17:58:31 10° NE
Meteor 1-10 Rocket 4.2 17:48:24 10° N 17:54:01 79° ENE 17:59:42 10° SSE
Cosmos 1238 Rocket 3.3 17:51:22 10° N 17:54:13 26° ENE 17:56:51 10° SE
USA 276 2.7 17:51:42 10° SW 17:54:25 35° SSE 17:56:57 10° E
Iridium 51 3.5 17:55:44 10° NNE 17:57:37 29° E 17:59:30 10° SSE
SJ-6B 2.7 17:58:22 10° SSE 18:01:48 50° ENE 18:05:18 10° N
Meteor 1-31 Rocket 3.6 18:01:04 10° ESE 18:03:56 25° ENE 18:06:49 10° N
Cosmos 1943 Rocket 2.2 17:58:35 10° SSW 18:04:08 89° WNW 18:09:47 10° NNE
Resurs 01 Rocket 1.6 18:00:19 10° SSE 18:04:44 84° ENE 18:09:11 10° NNW
NOSS 2-2 (E) 3.0 18:01:37 10° SSW 18:04:49 47° SE 18:07:44 10° NE
Cosmos 2026 Rocket 3.9 17:58:44 10° S 18:04:54 73° E 18:11:01 10° NNE
Cosmos 1626 Rocket 4.2 18:01:09 10° SSW 18:05:32 64° WNW 18:09:58 10° N
Cosmos 1271 Rocket 2.5 18:02:13 10° N 18:05:35 51° ENE 18:08:57 10° SSE
Okean 1-7 Rocket 3.7 18:08:12 10° S 18:12:39 58° E 18:17:07 10° NNE
SL-12 R/B(2) 4.5 18:05:01 10° SSW 18:12:42 54° ESE 18:22:04 10° NE
COSMO-SKYMED 1 2.6 18:11:22 10° NNE 18:15:31 81° WNW 18:19:36 10° SSW
Cosmos 2151 3.1 18:11:38 10° SSW 18:15:42 76° WNW 18:19:47 10° N
Helios 1A Rocket 3.5 18:14:16 10° NE 18:16:57 23° E 18:19:36 10° SSE
Lacrosse 4 Rocket 3.9 18:17:01 10° WNW 18:19:30 16° NNW 18:22:00 10° N
Cosmos 1842 4.4 18:16:54 10° NNW 18:19:58 38° W 18:22:59 10° SSW
Cosmos 2297 Rocket 4.3 18:19:45 10° NNW 18:22:29 13° NNE 18:25:13 10° NE
Cosmos 44 Rocket 3.9 18:18:59 10° NW 18:24:02 47° NE 18:28:00 16° ESE
CSL-04 Debris 4.4 18:19:01 10° SE 18:24:10 49° ENE 18:29:20 10° N
Cosmos 1140 Rocket 4.0 18:19:45 10° S 18:24:31 37° ESE 18:29:19 10° NE
Cosmos 1763 Rocket 3.9 18:20:22 10° NNW 18:25:24 44° ENE 18:29:53 13° SE
Terra 2.9 18:24:36 15° ESE 18:27:23 25° ENE 18:31:13 10° N
NOSS 2-2 (C) 4.0 18:24:49 10° WSW 18:27:45 38° NW 18:30:36 10° NE
CZ-4B R/B 3.9 18:23:46 13° ESE 18:27:52 32° ENE 18:32:34 10° N
ERS-1 Rocket 3.8 18:25:21 14° ESE 18:28:57 31° ENE 18:33:19 10° N
Cosmos 2082 Rocket 3.1 18:26:13 10° NW 18:31:45 51° WSW 18:37:14 10° S
CZ-4C R/B 3.3 18:28:02 10° NW 18:34:46 65° SW 18:43:12 10° SSE
Cosmos 1953 Rocket 3.7 18:31:46 10° SSE 18:35:52 46° E 18:40:00 10° NNE
Meteor 1-5 Rocket 4.3 18:32:09 10° S 18:38:00 68° E 18:43:47 10° NNE
Cosmos 2278 Rocket 2.7 18:32:27 10° SW 18:38:05 64° NW 18:43:44 10° NNE
USA 267 4.4 18:38:12 17° ESE 18:40:14 20° SE 18:44:49 10° S
Cosmos 1607 4.1 18:34:24 10° NW 18:40:44 81° SW 18:47:06 10° SE
NOSS 2-2 (D) 3.3 18:39:31 10° WSW 18:42:39 54° NW 18:45:34 10° NE
CSL-04 Rocket 3.6 18:38:21 10° SSE 18:43:39 73° ENE 18:49:05 10° NNW
ISS -1.5 18:45:34 10° S 18:46:25 13° SSE 18:46:25 13° SSE
COBE Rocket 3.7 18:43:35 10° NNE 18:48:09 58° E 18:52:43 10° S
Cosmos 1066 Rocket 4.1 18:43:15 10° N 18:48:48 73° ENE 18:54:11 10° SSE
SL-24 DEB 4.1 18:45:12 10° N 18:49:46 80° E 18:54:19 10° S
SPOT 5 3.0 18:44:55 10° SSE 18:50:13 82° ENE 18:55:30 10° NNW
Feng Yun 1-1 Rocket 4.4 18:46:27 10° SSE 18:52:16 62° ENE 18:58:02 10° N
Meteor 2-4 Rocket 3.8 18:48:51 10° NNW 18:54:24 76° W 18:59:47 10° S
SL-08 R/B 4.4 18:52:10 10° NE 18:55:05 23° ENE 18:55:05 23° ENE
Meteor 2-10 3.9 18:50:50 10° S 18:56:10 72° E 19:01:21 10° NNE
Cosmos 2369 Rocket 2.7 18:51:11 10° S 18:56:16 35° ESE 19:01:20 10° NE
Cosmos 1269 Rocket 3.9 18:51:27 10° S 18:56:39 64° ESE 19:01:52 10° NNE
SeaSat 1 2.4 18:53:18 17° SE 18:57:03 82° ENE 19:01:59 10° NNW
CENTAUR R/B 3.3 18:52:08 10° WSW 18:58:02 54° NNW 19:05:32 10° NE
Cosmos 1553 Rocket 4.3 18:54:25 10° NNW 19:00:30 70° W 19:06:38 10° S
SL-4 R/B 3.9 18:59:09 10° WSW 19:01:02 15° SW 19:02:45 11° S
Cosmos 1833 4.4 18:59:35 10° NNW 19:05:14 54° NE 19:07:55 29° ESE
Meteor 1-18 Rocket 4.1 18:59:35 10° NNW 19:05:18 81° ENE 19:10:49 10° SSE
Cosmos 220 Rocket 3.7 19:01:45 10° NNW 19:05:47 76° ENE 19:07:30 33° SE
CZ-4 R/B 1.2 19:02:52 17° SSE 19:05:50 90° SE 19:09:45 10° NNW
Cosmos 921 Rocket 2.9 19:03:11 10° SSW 19:07:22 84° WNW 19:11:40 10° NNE
NOSS 3-2 (C) 3.2 19:04:38 10° SSW 19:09:34 54° SE 19:15:30 10° NE
Cosmos 2297 4.0 19:07:21 10° S 19:12:36 41° ESE 19:17:54 10° NE
IRS-1A Rocket 4.4 19:10:55 30° SE 19:13:25 50° ENE 19:18:44 10° N
ADEOS 3.5 19:11:31 25° SE 19:14:35 67° ENE 19:19:46 10° NNW
Cosmos 2084 3.2 19:11:38 10° NW 19:15:46 84° SW 19:16:59 44° SE
Okean O Rocket 2.2 19:16:08 37° ENE 19:16:30 37° ENE 19:20:35 10° N
Cosmos 1076 Rocket 4.0 19:13:06 10° SSW 19:17:15 60° WNW 19:21:26 10° N
Cosmos 1656 Rocket 3.5 19:11:44 10° SSW 19:17:16 88° ESE 19:22:47 10° NNE
Cosmos 1805 4.0 19:15:16 10° SSW 19:18:26 43° WNW 19:21:37 10° N
Cosmos 540 Rocket 3.4 19:13:28 10° NNW 19:18:39 89° WSW 19:21:30 27° SSE
USA 234 3.3 19:16:13 29° E 19:19:48 76° NNE 19:26:22 10° WNW
Cosmos 1241 Rocket 4.3 19:14:29 10° SSW 19:20:42 75° SE 19:26:55 10° NE
Cosmos 2315 Rocket 3.9 19:18:18 10° N 19:24:40 74° ENE 19:29:00 22° SSE
Cosmos 2227 Rocket 4.3 19:22:10 10° NNW 19:25:19 15° NNE 19:27:45 12° NE
Cosmos 468 Rocket 4.0 19:20:30 10° NNW 19:25:47 68° ENE 19:27:33 41° SE
USA 276 3.3 19:24:24 10° W 19:26:08 31° WSW 19:26:08 31° WSW
In-Cosmos 22 3.9 19:23:11 10° NNW 19:28:31 87° ENE 19:31:27 27° SSE
Cosmos 841 Rocket 4.0 19:23:52 10° NNW 19:28:44 40° NE 19:29:25 38° ENE
Cosmos 1842 Rocket 4.4 19:26:53 10° NNW 19:31:03 48° W 19:35:10 10° SSW
MOS 1-B 4.4 19:30:11 39° SE 19:32:08 59° ENE 19:37:49 10° N
PAYLOAD B 4.3 19:28:46 17° S 19:33:11 76° WSW 19:38:45 10° NNW
Cosmos 2266 Rocket 4.0 19:29:07 10° S 19:35:25 89° WNW 19:41:51 10° N
Cosmos 2263 4.3 19:30:38 10° S 19:36:04 50° ESE 19:41:30 10° NE
Meteor 1-31 Rocket 4.4 19:34:00 11° SSW 19:36:54 29° W 19:40:00 10° NNW
CZ-4B R/B 4.2 19:40:39 28° NNE 19:40:39 28° NNE 19:43:10 10° N
NOSS 3-2 (A) 3.9 19:38:19 10° WSW 19:43:32 55° NNW 19:49:55 10° NE
SL-14 R/B 3.3 19:43:19 10° NNW 19:47:09 71° W 19:47:16 70° WSW
Cosmos 1655 Rocket 4.0 19:44:28 30° SSE 19:47:42 64° E 19:54:02 10° NNE
Okean-O 2.6 19:48:12 64° NE 19:48:12 64° NE 19:52:18 10° N
Cosmos 1943 Rocket 4.3 19:44:08 10° W 19:48:39 25° NW 19:53:13 10° NNE
Helios 1A Rocket 4.4 19:46:16 10° N 19:49:07 28° WNW 19:51:57 10° SW
Cosmos 2263 Rocket 4.3 19:46:52 10° NNW 19:49:56 15° NNE 19:51:57 12° NE
S3M 4.4 19:43:56 10° NNW 19:50:16 64° W 19:56:07 12° S
Meteor 1-14 Rocket 4.3 19:49:46 55° ESE 19:50:18 57° E 19:56:02 10° NNE
Intercosmos 25 4.4 19:49:58 10° N 19:51:44 31° N 19:51:44 31° N
Cosmos 1536 3.4 19:57:15 49° NNW 19:57:15 49° NNW 20:00:13 10° N
Ariane Rocket 3.8 19:57:32 36° NE 19:57:32 36° NE 20:01:28 10° N
Cosmos 1151 Rocket 3.1 19:53:49 10° NNW 19:58:02 66° W 19:58:17 65° WSW
Cosmos 407 Rocket 3.6 19:56:29 10° SSW 20:01:49 78° WNW 20:07:11 10° NNE
Terra 2.4 20:03:13 39° SSW 20:04:38 53° W 20:09:15 10° NNW
Cosmos 44 Rocket 4.2 20:00:33 10° NW 20:05:29 44° WSW 20:06:36 38° SSW
ERS-1 Rocket 3.8 20:05:11 28° SSW 20:07:30 47° W 20:12:19 10° NNW
Spot 2 Rocket 3.4 20:07:40 76° S 20:08:03 85° WSW 20:13:10 10° NNW
CZ-4B R/B 3.9 20:05:37 27° SSW 20:08:14 50° W 20:13:28 10° NNW
Cosmos 2297 Rocket 3.2 20:03:20 10° NNW 20:08:24 32° NE 20:08:27 32° NE
Meteor 1-11 Rocket 4.5 20:23:32 39° NE 20:23:32 39° NE 20:27:11 10° NNE
USA 267 3.5 20:25:36 50° S 20:25:36 50° S 20:30:40 10° SW
CZ-4B R/B 3.7 20:30:11 69° NNW 20:30:11 69° NNW 20:34:44 10° NNW
SL-08 R/B 4.0 20:29:21 10° N 20:33:50 52° WNW 20:33:53 52° WNW
IRS-1C Rocket 4.5 20:36:42 57° N 20:36:42 57° N 20:40:56 10° NNW
Cosmos 2344 4.1 20:29:43 10° NW 20:37:01 54° NNE 20:39:09 44° ENE
Cosmos 2369 Rocket 2.9 20:34:32 10° SW 20:40:06 52° NW 20:45:40 10° NNE
CZ-4 R/B 4.4 20:39:38 10° W 20:40:29 11° W 20:41:20 10° WNW
Cosmos 1244 Rocket 4.4 20:43:06 79° NNE 20:43:06 79° NNE 20:48:59 10° N
CENTAUR R/B 4.1 20:44:03 10° WNW 20:50:13 35° N 20:56:16 15° NE
Okean O Rocket 3.3 20:53:22 29° W 20:53:22 29° W 20:56:40 10° NNW
SPOT 3 Rocket 4.3 20:58:50 49° NW 20:58:50 49° NW 21:02:52 10° NNW
NOSS 3-2 (C) 4.2 20:55:20 10° WSW 21:00:33 46° NNW 21:06:55 10° NE
USA 234 3.6 21:03:33 52° SW 21:03:33 52° SW 21:09:28 10° WNW
Cosmos 2227 Rocket 3.5 21:05:44 10° NNW 21:09:33 33° NNE 21:09:33 33° NNE
SJ 16-02 4.0 21:15:26 14° N 21:15:26 14° N 21:16:10 10° N
Cosmos 2263 Rocket 3.8 21:30:19 10° NNW 21:33:37 29° N 21:33:37 29° N
Cosmos 2297 Rocket 3.7 21:47:15 10° NW 21:50:14 32° NW 21:50:14 32° NW
USA 281 4.3 22:18:09 38° NNE 22:18:09 38° NNE 22:22:39 10° NNW
CENTAUR R/B 3.9 22:35:34 10° NW 22:42:41 45° NNE 22:43:20 44° NE
Cosmos 2344 4.5 22:43:59 10° NW 22:49:10 45° WNW 22:49:10 45° WNW
Cosmos 2227 Rocket 4.5 22:49:47 10° NW 22:51:20 19° NW 22:51:20 19° NW
